Year,Month,Day,Hour,Minute,Value (Times are PST for insolation in W/m^2)
2007,10,01,00,00,0.00
2007,10,01,00,01,0.00
2007,10,01,00,02,0.00
2007,10,01,00,03,0.00
2007,10,01,00,04,0.00
2007,10,01,00,05,0.00
2007,10,01,00,06,0.00
2007,10,01,00,07,0.00
2007,10,01,00,08,0.00
2007,10,01,00,09,0.00
2007,10,01,00,10,0.00
2007,10,01,00,11,0.00
2007,10,01,00,12,0.00
2007,10,01,00,13,0.00
2007,10,01,00,14,0.00
2007,10,01,00,15,0.00
2007,10,01,00,16,0.00
2007,10,01,00,17,0.00
2007,10,01,00,18,0.00
2007,10,01,00,19,0.00
2007,10,01,00,20,0.00
2007,10,01,00,21,0.00
2007,10,01,00,22,0.00
2007,10,01,00,23,0.00
2007,10,01,00,24,0.00
2007,10,01,00,25,0.00
2007,10,01,00,26,0.00
2007,10,01,00,27,0.00
2007,10,01,00,28,0.00
2007,10,01,00,29,0.00
2007,10,01,00,30,0.00
2007,10,01,00,31,0.00
2007,10,01,00,32,0.00
2007,10,01,00,33,0.00
2007,10,01,00,34,0.00
2007,10,01,00,35,0.00
2007,10,01,00,36,0.00
2007,10,01,00,37,0.00
2007,10,01,00,38,0.00
2007,10,01,00,39,0.00
2007,10,01,00,40,0.00
2007,10,01,00,41,0.00
2007,10,01,00,42,0.00
2007,10,01,00,43,0.00
2007,10,01,00,44,0.00
2007,10,01,00,45,0.00
2007,10,01,00,46,0.00
2007,10,01,00,47,0.00
2007,10,01,00,48,0.00
2007,10,01,00,49,0.00
2007,10,01,00,50,0.00
2007,10,01,00,51,0.00
2007,10,01,00,52,0.00
2007,10,01,00,53,0.00
2007,10,01,00,54,0.00
2007,10,01,00,55,0.00
2007,10,01,00,56,0.00
2007,10,01,00,57,0.00
2007,10,01,00,58,0.00
2007,10,01,00,59,0.00
2007,10,01,01,00,0.00
2007,10,01,01,01,0.00
2007,10,01,01,02,0.00
2007,10,01,01,03,0.00
2007,10,01,01,04,0.00
2007,10,01,01,05,0.00
2007,10,01,01,06,0.00
2007,10,01,01,07,0.00
2007,10,01,01,08,0.00
2007,10,01,01,09,0.00
2007,10,01,01,10,0.00
2007,10,01,01,11,0.00
2007,10,01,01,12,0.00
2007,10,01,01,13,0.00
2007,10,01,01,14,0.00
2007,10,01,01,15,0.00
2007,10,01,01,16,0.00
2007,10,01,01,17,0.00
2007,10,01,01,18,0.00
2007,10,01,01,19,0.00
2007,10,01,01,20,0.00
2007,10,01,01,21,0.00
2007,10,01,01,22,0.00
2007,10,01,01,23,0.00
2007,10,01,01,24,0.00
2007,10,01,01,25,0.00
2007,10,01,01,26,0.00
2007,10,01,01,27,0.00
2007,10,01,01,28,0.00
2007,10,01,01,29,0.00
2007,10,01,01,30,0.00
2007,10,01,01,31,0.00
2007,10,01,01,32,0.00
2007,10,01,01,33,0.00
2007,10,01,01,34,0.00
2007,10,01,01,35,0.00
2007,10,01,01,36,0.00
2007,10,01,01,37,0.00
2007,10,01,01,38,0.00
2007,10,01,01,39,0.00
2007,10,01,01,40,0.00
2007,10,01,01,41,0.00
2007,10,01,01,42,0.00
2007,10,01,01,43,0.00
2007,10,01,01,44,0.00
2007,10,01,01,45,0.00
2007,10,01,01,46,0.00
2007,10,01,01,47,0.00
2007,10,01,01,48,0.00
2007,10,01,01,49,0.00
2007,10,01,01,50,0.00
2007,10,01,01,51,0.00
2007,10,01,01,52,0.00
2007,10,01,01,53,0.00
2007,10,01,01,54,0.00
2007,10,01,01,55,0.00
2007,10,01,01,56,0.00
2007,10,01,01,57,0.00
2007,10,01,01,58,0.00
2007,10,01,01,59,0.00
2007,10,01,02,00,0.00
2007,10,01,02,01,0.00
2007,10,01,02,02,0.00
2007,10,01,02,03,0.00
2007,10,01,02,04,0.00
2007,10,01,02,05,0.00
2007,10,01,02,06,0.00
2007,10,01,02,07,0.00
2007,10,01,02,08,0.00
2007,10,01,02,09,0.00
2007,10,01,02,10,0.00
2007,10,01,02,11,0.00
2007,10,01,02,12,0.00
2007,10,01,02,13,0.00
2007,10,01,02,14,0.00
2007,10,01,02,15,0.00
2007,10,01,02,16,0.00
2007,10,01,02,17,0.00
2007,10,01,02,18,0.00
2007,10,01,02,19,0.00
2007,10,01,02,20,0.00
2007,10,01,02,21,0.00
2007,10,01,02,22,0.00
2007,10,01,02,23,0.00
2007,10,01,02,24,0.00
2007,10,01,02,25,0.00
2007,10,01,02,26,0.00
2007,10,01,02,27,0.00
2007,10,01,02,28,0.00
2007,10,01,02,29,0.00
2007,10,01,02,30,0.00
2007,10,01,02,31,0.00
2007,10,01,02,32,0.00
2007,10,01,02,33,0.00
2007,10,01,02,34,0.00
2007,10,01,02,35,0.00
2007,10,01,02,36,0.00
2007,10,01,02,37,0.00
2007,10,01,02,38,0.00
2007,10,01,02,39,0.00
2007,10,01,02,40,0.00
2007,10,01,02,41,0.00
2007,10,01,02,42,0.00
2007,10,01,02,43,0.00
2007,10,01,02,44,0.00
2007,10,01,02,45,0.00
2007,10,01,02,46,0.00
2007,10,01,02,47,0.00
2007,10,01,02,48,0.00
2007,10,01,02,49,0.00
2007,10,01,02,50,0.00
2007,10,01,02,51,0.00
2007,10,01,02,52,0.00
2007,10,01,02,53,0.00
2007,10,01,02,54,0.00
2007,10,01,02,55,0.00
2007,10,01,02,56,0.00
2007,10,01,02,57,0.00
2007,10,01,02,58,0.00
2007,10,01,02,59,0.00
2007,10,01,03,00,0.00
2007,10,01,03,01,0.00
2007,10,01,03,02,0.00
2007,10,01,03,03,0.00
2007,10,01,03,04,0.00
2007,10,01,03,05,0.00
2007,10,01,03,06,0.00
2007,10,01,03,07,0.00
2007,10,01,03,08,0.00
2007,10,01,03,09,0.00
2007,10,01,03,10,0.00
2007,10,01,03,11,0.00
2007,10,01,03,12,0.00
2007,10,01,03,13,0.00
2007,10,01,03,14,0.00
2007,10,01,03,15,0.00
2007,10,01,03,16,0.00
2007,10,01,03,17,0.00
2007,10,01,03,18,0.00
2007,10,01,03,19,0.00
2007,10,01,03,20,0.00
2007,10,01,03,21,0.00
2007,10,01,03,22,0.00
2007,10,01,03,23,0.00
2007,10,01,03,24,0.00
2007,10,01,03,25,0.00
2007,10,01,03,26,0.00
2007,10,01,03,27,0.00
2007,10,01,03,28,0.00
2007,10,01,03,29,0.00
2007,10,01,03,30,0.00
2007,10,01,03,31,0.00
2007,10,01,03,32,0.00
2007,10,01,03,33,0.00
2007,10,01,03,34,0.00
2007,10,01,03,35,0.00
2007,10,01,03,36,0.00
2007,10,01,03,37,0.00
2007,10,01,03,38,0.00
2007,10,01,03,39,0.00
2007,10,01,03,40,0.00
2007,10,01,03,41,0.00
2007,10,01,03,42,0.00
2007,10,01,03,43,0.00
2007,10,01,03,44,0.00
2007,10,01,03,45,0.00
2007,10,01,03,46,0.00
2007,10,01,03,47,0.00
2007,10,01,03,48,0.00
2007,10,01,03,49,0.00
2007,10,01,03,50,0.00
2007,10,01,03,51,0.00
2007,10,01,03,52,0.00
2007,10,01,03,53,0.00
2007,10,01,03,54,0.00
2007,10,01,03,55,0.00
2007,10,01,03,56,0.00
2007,10,01,03,57,0.00
2007,10,01,03,58,0.00
2007,10,01,03,59,0.00
2007,10,01,04,00,0.00
2007,10,01,04,01,0.00
2007,10,01,04,02,0.00
2007,10,01,04,03,0.00
2007,10,01,04,04,0.00
2007,10,01,04,05,0.00
2007,10,01,04,06,0.00
2007,10,01,04,07,0.00
2007,10,01,04,08,0.00
2007,10,01,04,09,0.00
2007,10,01,04,10,0.00
2007,10,01,04,11,0.00
2007,10,01,04,12,0.00
2007,10,01,04,13,0.00
2007,10,01,04,14,0.00
2007,10,01,04,15,0.00
2007,10,01,04,16,0.00
2007,10,01,04,17,0.00
2007,10,01,04,18,0.00
2007,10,01,04,19,0.00
2007,10,01,04,20,0.00
2007,10,01,04,21,0.00
2007,10,01,04,22,0.00
2007,10,01,04,23,0.00
2007,10,01,04,24,0.00
2007,10,01,04,25,0.00
2007,10,01,04,26,0.00
2007,10,01,04,27,0.00
2007,10,01,04,28,0.00
2007,10,01,04,29,0.00
2007,10,01,04,30,0.00
2007,10,01,04,31,0.00
2007,10,01,04,32,0.00
2007,10,01,04,33,0.00
2007,10,01,04,34,0.00
2007,10,01,04,35,0.00
2007,10,01,04,36,0.00
2007,10,01,04,37,0.00
2007,10,01,04,38,0.00
2007,10,01,04,39,0.00
2007,10,01,04,40,0.00
2007,10,01,04,41,0.00
2007,10,01,04,42,0.00
2007,10,01,04,43,0.00
2007,10,01,04,44,0.00
2007,10,01,04,45,0.00
2007,10,01,04,46,0.00
2007,10,01,04,47,0.00
2007,10,01,04,48,0.00
2007,10,01,04,49,0.00
2007,10,01,04,50,0.00
2007,10,01,04,51,0.00
2007,10,01,04,52,0.00
2007,10,01,04,53,0.00
2007,10,01,04,54,0.00
2007,10,01,04,55,0.00
2007,10,01,04,56,0.00
2007,10,01,04,57,0.00
2007,10,01,04,58,0.00
2007,10,01,04,59,0.00
2007,10,01,05,00,0.00
2007,10,01,05,01,0.00
2007,10,01,05,02,0.00
2007,10,01,05,03,0.00
2007,10,01,05,04,0.00
2007,10,01,05,05,0.00
2007,10,01,05,06,0.00
2007,10,01,05,07,0.00
2007,10,01,05,08,0.00
2007,10,01,05,09,0.00
2007,10,01,05,10,0.00
2007,10,01,05,11,0.00
2007,10,01,05,12,0.00
2007,10,01,05,13,0.00
2007,10,01,05,14,0.00
2007,10,01,05,15,0.00
2007,10,01,05,16,0.00
2007,10,01,05,17,0.00
2007,10,01,05,18,0.00
2007,10,01,05,19,0.00
2007,10,01,05,20,0.00
2007,10,01,05,21,0.00
2007,10,01,05,22,0.00
2007,10,01,05,23,0.00
2007,10,01,05,24,0.00
2007,10,01,05,25,0.00
2007,10,01,05,26,0.00
2007,10,01,05,27,0.00
2007,10,01,05,28,0.00
2007,10,01,05,29,0.00
2007,10,01,05,30,0.00
2007,10,01,05,31,0.00
2007,10,01,05,32,0.00
2007,10,01,05,33,0.00
2007,10,01,05,34,0.00
2007,10,01,05,35,0.00
2007,10,01,05,36,0.00
2007,10,01,05,37,0.00
2007,10,01,05,38,0.00
2007,10,01,05,39,0.00
2007,10,01,05,40,0.00
2007,10,01,05,41,0.00
2007,10,01,05,42,0.00
2007,10,01,05,43,0.00
2007,10,01,05,44,0.00
2007,10,01,05,45,0.00
2007,10,01,05,46,0.00
2007,10,01,05,47,0.00
2007,10,01,05,48,0.00
2007,10,01,05,49,0.00
2007,10,01,05,50,0.00
2007,10,01,05,51,0.00
2007,10,01,05,52,0.00
2007,10,01,05,53,0.00
2007,10,01,05,54,0.00
2007,10,01,05,55,0.00
2007,10,01,05,56,0.00
2007,10,01,05,57,0.00
2007,10,01,05,58,0.00
2007,10,01,05,59,0.00
2007,10,01,06,00,0.00
2007,10,01,06,01,0.00
2007,10,01,06,02,0.00
2007,10,01,06,03,0.00
2007,10,01,06,04,0.00
2007,10,01,06,05,0.00
2007,10,01,06,06,0.00
2007,10,01,06,07,0.00
2007,10,01,06,08,0.00
2007,10,01,06,09,0.00
2007,10,01,06,10,0.00
2007,10,01,06,11,0.00
2007,10,01,06,12,0.00
2007,10,01,06,13,0.00
2007,10,01,06,14,0.00
2007,10,01,06,15,0.00
2007,10,01,06,16,0.00
2007,10,01,06,17,0.00
2007,10,01,06,18,0.00
2007,10,01,06,19,0.00
2007,10,01,06,20,0.00
2007,10,01,06,21,0.00
2007,10,01,06,22,0.00
2007,10,01,06,23,0.00
2007,10,01,06,24,0.00
2007,10,01,06,25,0.00
2007,10,01,06,26,0.00
2007,10,01,06,27,0.00
2007,10,01,06,28,0.00
2007,10,01,06,29,0.00
2007,10,01,06,30,0.00
2007,10,01,06,31,0.00
2007,10,01,06,32,0.00
2007,10,01,06,33,0.00
2007,10,01,06,34,0.00
2007,10,01,06,35,0.00
2007,10,01,06,36,0.00
2007,10,01,06,37,0.00
2007,10,01,06,38,0.00
2007,10,01,06,39,0.00
2007,10,01,06,40,0.00
2007,10,01,06,41,0.00
2007,10,01,06,42,0.00
2007,10,01,06,43,0.00
2007,10,01,06,44,0.00
2007,10,01,06,45,0.00
2007,10,01,06,46,0.00
2007,10,01,06,47,0.00
2007,10,01,06,48,0.00
2007,10,01,06,49,0.00
2007,10,01,06,50,0.00
2007,10,01,06,51,0.00
2007,10,01,06,52,0.00
2007,10,01,06,53,0.00
2007,10,01,06,54,0.00
2007,10,01,06,55,0.00
2007,10,01,06,56,0.00
2007,10,01,06,57,0.00
2007,10,01,06,58,0.00
2007,10,01,06,59,0.00
2007,10,01,07,00,0.00
2007,10,01,07,01,0.00
2007,10,01,07,02,0.00
2007,10,01,07,03,0.00
2007,10,01,07,04,0.00
2007,10,01,07,05,0.00
2007,10,01,07,06,0.00
2007,10,01,07,07,0.00
2007,10,01,07,08,0.00
2007,10,01,07,09,0.00
2007,10,01,07,10,0.00
2007,10,01,07,11,0.00
2007,10,01,07,12,0.00
2007,10,01,07,13,0.00
2007,10,01,07,14,0.00
2007,10,01,07,15,0.00
2007,10,01,07,16,0.00
2007,10,01,07,17,0.00
2007,10,01,07,18,0.00
2007,10,01,07,19,0.00
2007,10,01,07,20,0.00
2007,10,01,07,21,0.00
2007,10,01,07,22,0.00
2007,10,01,07,23,0.00
2007,10,01,07,24,0.00
2007,10,01,07,25,2.90
2007,10,01,07,26,5.00
2007,10,01,07,27,5.00
2007,10,01,07,28,5.00
2007,10,01,07,29,5.00
2007,10,01,07,30,5.00
2007,10,01,07,31,6.20
2007,10,01,07,32,7.00
2007,10,01,07,33,7.00
2007,10,01,07,34,8.90
2007,10,01,07,35,9.00
2007,10,01,07,36,9.90
2007,10,01,07,37,11.00
2007,10,01,07,38,11.00
2007,10,01,07,39,11.00
2007,10,01,07,40,11.00
2007,10,01,07,41,11.30
2007,10,01,07,42,12.00
2007,10,01,07,43,12.00
2007,10,01,07,44,12.00
2007,10,01,07,45,11.90
2007,10,01,07,46,11.00
2007,10,01,07,47,11.00
2007,10,01,07,48,11.50
2007,10,01,07,49,12.00
2007,10,01,07,50,13.60
2007,10,01,07,51,14.00
2007,10,01,07,52,14.50
2007,10,01,07,53,16.00
2007,10,01,07,54,17.10
2007,10,01,07,55,18.70
2007,10,01,07,56,20.80
2007,10,01,07,57,21.10
2007,10,01,07,58,23.00
2007,10,01,07,59,23.80
2007,10,01,08,00,25.00
2007,10,01,08,01,25.80
2007,10,01,08,02,26.00
2007,10,01,08,03,28.00
2007,10,01,08,04,28.50
2007,10,01,08,05,30.80
2007,10,01,08,06,32.00
2007,10,01,08,07,32.80
2007,10,01,08,08,33.00
2007,10,01,08,09,35.20
2007,10,01,08,10,37.60
2007,10,01,08,11,40.40
2007,10,01,08,12,44.90
2007,10,01,08,13,50.10
2007,10,01,08,14,52.90
2007,10,01,08,15,54.00
2007,10,01,08,16,54.00
2007,10,01,08,17,53.50
2007,10,01,08,18,51.70
2007,10,01,08,19,47.70
2007,10,01,08,20,46.00
2007,10,01,08,21,44.00
2007,10,01,08,22,44.00
2007,10,01,08,23,44.00
2007,10,01,08,24,44.00
2007,10,01,08,25,44.00
2007,10,01,08,26,44.00
2007,10,01,08,27,44.00
2007,10,01,08,28,44.70
2007,10,01,08,29,46.00
2007,10,01,08,30,46.70
2007,10,01,08,31,48.80
2007,10,01,08,32,49.20
2007,10,01,08,33,53.20
2007,10,01,08,34,54.00
2007,10,01,08,35,55.10
2007,10,01,08,36,57.40
2007,10,01,08,37,61.50
2007,10,01,08,38,63.10
2007,10,01,08,39,65.40
2007,10,01,08,40,67.80
2007,10,01,08,41,70.60
2007,10,01,08,42,72.00
2007,10,01,08,43,75.30
2007,10,01,08,44,76.10
2007,10,01,08,45,77.00
2007,10,01,08,46,76.60
2007,10,01,08,47,73.60
2007,10,01,08,48,70.50
2007,10,01,08,49,69.10
2007,10,01,08,50,69.00
2007,10,01,08,51,69.30
2007,10,01,08,52,70.00
2007,10,01,08,53,70.00
2007,10,01,08,54,70.00
2007,10,01,08,55,70.00
2007,10,01,08,56,70.20
2007,10,01,08,57,76.00
2007,10,01,08,58,100.20
2007,10,01,08,59,106.70
2007,10,01,09,00,87.00
2007,10,01,09,01,81.00
2007,10,01,09,02,79.40
2007,10,01,09,03,82.10
2007,10,01,09,04,84.00
2007,10,01,09,05,95.60
2007,10,01,09,06,111.10
2007,10,01,09,07,118.90
2007,10,01,09,08,119.60
2007,10,01,09,09,119.10
2007,10,01,09,10,123.10
2007,10,01,09,11,128.50
2007,10,01,09,12,133.50
2007,10,01,09,13,140.80
2007,10,01,09,14,150.20
2007,10,01,09,15,156.80
2007,10,01,09,16,161.40
2007,10,01,09,17,165.80
2007,10,01,09,18,170.50
2007,10,01,09,19,172.00
2007,10,01,09,20,172.80
2007,10,01,09,21,167.40
2007,10,01,09,22,162.10
2007,10,01,09,23,156.90
2007,10,01,09,24,156.00
2007,10,01,09,25,162.30
2007,10,01,09,26,169.20
2007,10,01,09,27,176.00
2007,10,01,09,28,217.20
2007,10,01,09,29,241.40
2007,10,01,09,30,199.30
2007,10,01,09,31,188.70
2007,10,01,09,32,177.10
2007,10,01,09,33,172.90
2007,10,01,09,34,172.80
2007,10,01,09,35,171.20
2007,10,01,09,36,169.40
2007,10,01,09,37,164.50
2007,10,01,09,38,160.80
2007,10,01,09,39,154.70
2007,10,01,09,40,149.10
2007,10,01,09,41,146.40
2007,10,01,09,42,142.60
2007,10,01,09,43,141.20
2007,10,01,09,44,143.40
2007,10,01,09,45,149.50
2007,10,01,09,46,156.20
2007,10,01,09,47,161.50
2007,10,01,09,48,161.80
2007,10,01,09,49,157.50
2007,10,01,09,50,155.00
2007,10,01,09,51,155.00
2007,10,01,09,52,155.00
2007,10,01,09,53,157.50
2007,10,01,09,54,160.10
2007,10,01,09,55,167.40
2007,10,01,09,56,169.00
2007,10,01,09,57,171.50
2007,10,01,09,58,181.80
2007,10,01,09,59,197.40
2007,10,01,10,00,215.00
2007,10,01,10,01,231.70
2007,10,01,10,02,236.00
2007,10,01,10,03,234.80
2007,10,01,10,04,231.20
2007,10,01,10,05,227.60
2007,10,01,10,06,232.90
2007,10,01,10,07,248.00
2007,10,01,10,08,248.00
2007,10,01,10,09,197.40
2007,10,01,10,10,152.10
2007,10,01,10,11,148.10
2007,10,01,10,12,149.90
2007,10,01,10,13,155.40
2007,10,01,10,14,148.60
2007,10,01,10,15,149.80
2007,10,01,10,16,148.70
2007,10,01,10,17,161.20
2007,10,01,10,18,152.10
2007,10,01,10,19,165.30
2007,10,01,10,20,172.70
2007,10,01,10,21,167.70
2007,10,01,10,22,209.00
2007,10,01,10,23,174.00
2007,10,01,10,24,182.20
2007,10,01,10,25,178.00
2007,10,01,10,26,178.00
2007,10,01,10,27,173.80
2007,10,01,10,28,171.00
2007,10,01,10,29,171.00
2007,10,01,10,30,163.00
2007,10,01,10,31,131.00
2007,10,01,10,32,91.60
2007,10,01,10,33,84.20
2007,10,01,10,34,79.50
2007,10,01,10,35,79.10
2007,10,01,10,36,81.40
2007,10,01,10,37,83.40
2007,10,01,10,38,84.90
2007,10,01,10,39,84.50
2007,10,01,10,40,81.40
2007,10,01,10,41,81.00
2007,10,01,10,42,80.10
2007,10,01,10,43,74.90
2007,10,01,10,44,72.00
2007,10,01,10,45,70.50
2007,10,01,10,46,67.40
2007,10,01,10,47,62.90
2007,10,01,10,48,62.00
2007,10,01,10,49,62.00
2007,10,01,10,50,62.00
2007,10,01,10,51,62.80
2007,10,01,10,52,64.90
2007,10,01,10,53,69.40
2007,10,01,10,54,72.90
2007,10,01,10,55,76.40
2007,10,01,10,56,77.00
2007,10,01,10,57,76.20
2007,10,01,10,58,70.40
2007,10,01,10,59,65.30
2007,10,01,11,00,67.00
2007,10,01,11,01,67.90
2007,10,01,11,02,69.60
2007,10,01,11,03,70.00
2007,10,01,11,04,69.00
2007,10,01,11,05,62.90
2007,10,01,11,06,62.30
2007,10,01,11,07,64.90
2007,10,01,11,08,67.00
2007,10,01,11,09,72.80
2007,10,01,11,10,76.00
2007,10,01,11,11,75.60
2007,10,01,11,12,74.00
2007,10,01,11,13,75.60
2007,10,01,11,14,81.90
2007,10,01,11,15,91.70
2007,10,01,11,16,104.70
2007,10,01,11,17,119.80
2007,10,01,11,18,133.10
2007,10,01,11,19,147.40
2007,10,01,11,20,160.10
2007,10,01,11,21,170.90
2007,10,01,11,22,179.40
2007,10,01,11,23,187.60
2007,10,01,11,24,193.00
2007,10,01,11,25,197.80
2007,10,01,11,26,203.40
2007,10,01,11,27,204.00
2007,10,01,11,28,204.30
2007,10,01,11,29,210.80
2007,10,01,11,30,216.00
2007,10,01,11,31,216.00
2007,10,01,11,32,220.60
2007,10,01,11,33,272.90
2007,10,01,11,34,263.50
2007,10,01,11,35,229.10
2007,10,01,11,36,251.60
2007,10,01,11,37,275.40
2007,10,01,11,38,294.60
2007,10,01,11,39,320.80
2007,10,01,11,40,321.70
2007,10,01,11,41,318.00
2007,10,01,11,42,319.90
2007,10,01,11,43,317.50
2007,10,01,11,44,322.00
2007,10,01,11,45,336.00
2007,10,01,11,46,413.20
2007,10,01,11,47,437.40
2007,10,01,11,48,434.50
2007,10,01,11,49,389.30
2007,10,01,11,50,317.20
2007,10,01,11,51,348.00
2007,10,01,11,52,337.30
2007,10,01,11,53,317.50
2007,10,01,11,54,314.50
2007,10,01,11,55,322.40
2007,10,01,11,56,325.00
2007,10,01,11,57,323.40
2007,10,01,11,58,292.10
2007,10,01,11,59,272.80
2007,10,01,12,00,265.90
2007,10,01,12,01,266.30
2007,10,01,12,02,262.60
2007,10,01,12,03,254.60
2007,10,01,12,04,246.60
2007,10,01,12,05,238.90
2007,10,01,12,06,233.60
2007,10,01,12,07,232.00
2007,10,01,12,08,232.00
2007,10,01,12,09,257.80
2007,10,01,12,10,274.50
2007,10,01,12,11,289.60
2007,10,01,12,12,312.50
2007,10,01,12,13,329.60
2007,10,01,12,14,322.40
2007,10,01,12,15,309.90
2007,10,01,12,16,295.20
2007,10,01,12,17,271.90
2007,10,01,12,18,248.10
2007,10,01,12,19,211.80
2007,10,01,12,20,169.20
2007,10,01,12,21,130.60
2007,10,01,12,22,122.90
2007,10,01,12,23,139.20
2007,10,01,12,24,166.60
2007,10,01,12,25,188.80
2007,10,01,12,26,195.00
2007,10,01,12,27,185.50
2007,10,01,12,28,197.90
2007,10,01,12,29,232.50
2007,10,01,12,30,253.60
2007,10,01,12,31,236.10
2007,10,01,12,32,218.10
2007,10,01,12,33,208.50
2007,10,01,12,34,190.70
2007,10,01,12,35,162.80
2007,10,01,12,36,141.10
2007,10,01,12,37,137.00
2007,10,01,12,38,176.50
2007,10,01,12,39,200.00
2007,10,01,12,40,140.60
2007,10,01,12,41,130.00
2007,10,01,12,42,156.10
2007,10,01,12,43,183.80
2007,10,01,12,44,172.00
2007,10,01,12,45,170.10
2007,10,01,12,46,151.40
2007,10,01,12,47,127.50
2007,10,01,12,48,126.10
2007,10,01,12,49,123.50
2007,10,01,12,50,111.60
2007,10,01,12,51,111.60
2007,10,01,12,52,116.10
2007,10,01,12,53,120.00
2007,10,01,12,54,115.40
2007,10,01,12,55,113.10
2007,10,01,12,56,113.10
2007,10,01,12,57,115.80
2007,10,01,12,58,123.80
2007,10,01,12,59,146.10
2007,10,01,13,00,182.00
2007,10,01,13,01,233.30
2007,10,01,13,02,258.00
2007,10,01,13,03,382.10
2007,10,01,13,04,680.00
2007,10,01,13,05,680.00
2007,10,01,13,06,680.00
2007,10,01,13,07,419.30
2007,10,01,13,08,403.00
2007,10,01,13,09,580.20
2007,10,01,13,10,858.90
2007,10,01,13,11,807.00
2007,10,01,13,12,492.00
2007,10,01,13,13,376.00
2007,10,01,13,14,374.00
2007,10,01,13,15,374.00
2007,10,01,13,16,635.50
2007,10,01,13,17,869.40
2007,10,01,13,18,870.00
2007,10,01,13,19,870.00
2007,10,01,13,20,702.50
2007,10,01,13,21,153.10
2007,10,01,13,22,147.70
2007,10,01,13,23,156.80
2007,10,01,13,24,180.30
2007,10,01,13,25,176.60
2007,10,01,13,26,190.90
2007,10,01,13,27,207.00
2007,10,01,13,28,203.10
2007,10,01,13,29,232.50
2007,10,01,13,30,244.20
2007,10,01,13,31,244.00
2007,10,01,13,32,374.80
2007,10,01,13,33,818.10
2007,10,01,13,34,819.50
2007,10,01,13,35,795.00
2007,10,01,13,36,610.50
2007,10,01,13,37,577.00
2007,10,01,13,38,546.40
2007,10,01,13,39,473.00
2007,10,01,13,40,473.00
2007,10,01,13,41,313.20
2007,10,01,13,42,299.70
2007,10,01,13,43,291.40
2007,10,01,13,44,289.90
2007,10,01,13,45,297.00
2007,10,01,13,46,297.00
2007,10,01,13,47,297.00
2007,10,01,13,48,657.00
2007,10,01,13,49,657.00
2007,10,01,13,50,657.00
2007,10,01,13,51,556.30
2007,10,01,13,52,505.80
2007,10,01,13,53,540.00
2007,10,01,13,54,779.00
2007,10,01,13,55,731.00
2007,10,01,13,56,679.00
2007,10,01,13,57,679.00
2007,10,01,13,58,458.80
2007,10,01,13,59,376.10
2007,10,01,14,00,378.00
2007,10,01,14,01,700.00
2007,10,01,14,02,680.00
2007,10,01,14,03,687.20
2007,10,01,14,04,696.00
2007,10,01,14,05,696.00
2007,10,01,14,06,223.00
2007,10,01,14,07,223.00
2007,10,01,14,08,223.00
2007,10,01,14,09,223.00
2007,10,01,14,10,223.00
2007,10,01,14,11,257.40
2007,10,01,14,12,261.90
2007,10,01,14,13,293.60
2007,10,01,14,14,268.80
2007,10,01,14,15,241.50
2007,10,01,14,16,212.40
2007,10,01,14,17,192.90
2007,10,01,14,18,176.90
2007,10,01,14,19,165.80
2007,10,01,14,20,152.40
2007,10,01,14,21,138.30
2007,10,01,14,22,122.90
2007,10,01,14,23,118.20
2007,10,01,14,24,113.40
2007,10,01,14,25,109.00
2007,10,01,14,26,109.00
2007,10,01,14,27,137.50
2007,10,01,14,28,155.50
2007,10,01,14,29,169.60
2007,10,01,14,30,172.90
2007,10,01,14,31,158.70
2007,10,01,14,32,135.00
2007,10,01,14,33,119.90
2007,10,01,14,34,110.20
2007,10,01,14,35,105.60
2007,10,01,14,36,112.60
2007,10,01,14,37,123.90
2007,10,01,14,38,132.60
2007,10,01,14,39,137.80
2007,10,01,14,40,139.00
2007,10,01,14,41,135.20
2007,10,01,14,42,125.60
2007,10,01,14,43,121.70
2007,10,01,14,44,127.90
2007,10,01,14,45,142.50
2007,10,01,14,46,160.10
2007,10,01,14,47,187.10
2007,10,01,14,48,229.70
2007,10,01,14,49,285.60
2007,10,01,14,50,325.00
2007,10,01,14,51,457.70
2007,10,01,14,52,545.60
2007,10,01,14,53,600.30
2007,10,01,14,54,557.80
2007,10,01,14,55,403.00
2007,10,01,14,56,419.90
2007,10,01,14,57,471.80
2007,10,01,14,58,546.80
2007,10,01,14,59,585.20
2007,10,01,15,00,559.60
2007,10,01,15,01,565.10
2007,10,01,15,02,578.90
2007,10,01,15,03,636.70
2007,10,01,15,04,652.00
2007,10,01,15,05,270.90
2007,10,01,15,06,323.00
2007,10,01,15,07,323.00
2007,10,01,15,08,323.00
2007,10,01,15,09,323.00
2007,10,01,15,10,578.10
2007,10,01,15,11,532.30
2007,10,01,15,12,454.40
2007,10,01,15,13,411.60
2007,10,01,15,14,373.00
2007,10,01,15,15,373.00
2007,10,01,15,16,373.00
2007,10,01,15,17,364.00
2007,10,01,15,18,322.00
2007,10,01,15,19,367.50
2007,10,01,15,20,431.30
2007,10,01,15,21,436.90
2007,10,01,15,22,423.20
2007,10,01,15,23,439.20
2007,10,01,15,24,444.20
2007,10,01,15,25,446.00
2007,10,01,15,26,449.60
2007,10,01,15,27,423.00
2007,10,01,15,28,422.50
2007,10,01,15,29,426.10
2007,10,01,15,30,399.70
2007,10,01,15,31,385.00
2007,10,01,15,32,385.00
2007,10,01,15,33,360.30
2007,10,01,15,34,365.70
2007,10,01,15,35,325.10
2007,10,01,15,36,364.40
2007,10,01,15,37,341.00
2007,10,01,15,38,327.00
2007,10,01,15,39,255.50
2007,10,01,15,40,163.10
2007,10,01,15,41,178.70
2007,10,01,15,42,187.90
2007,10,01,15,43,197.00
2007,10,01,15,44,193.50
2007,10,01,15,45,185.50
2007,10,01,15,46,188.90
2007,10,01,15,47,178.90
2007,10,01,15,48,175.90
2007,10,01,15,49,182.50
2007,10,01,15,50,187.50
2007,10,01,15,51,193.00
2007,10,01,15,52,190.90
2007,10,01,15,53,184.20
2007,10,01,15,54,178.60
2007,10,01,15,55,170.20
2007,10,01,15,56,157.90
2007,10,01,15,57,149.00
2007,10,01,15,58,140.90
2007,10,01,15,59,136.30
2007,10,01,16,00,136.10
2007,10,01,16,01,138.30
2007,10,01,16,02,139.00
2007,10,01,16,03,144.20
2007,10,01,16,04,150.10
2007,10,01,16,05,162.50
2007,10,01,16,06,173.10
2007,10,01,16,07,186.50
2007,10,01,16,08,200.70
2007,10,01,16,09,206.50
2007,10,01,16,10,216.10
2007,10,01,16,11,216.40
2007,10,01,16,12,198.20
2007,10,01,16,13,181.30
2007,10,01,16,14,163.90
2007,10,01,16,15,149.90
2007,10,01,16,16,139.60
2007,10,01,16,17,131.50
2007,10,01,16,18,127.40
2007,10,01,16,19,127.00
2007,10,01,16,20,127.00
2007,10,01,16,21,127.00
2007,10,01,16,22,126.40
2007,10,01,16,23,122.60
2007,10,01,16,24,116.50
2007,10,01,16,25,110.20
2007,10,01,16,26,109.00
2007,10,01,16,27,104.50
2007,10,01,16,28,99.90
2007,10,01,16,29,93.40
2007,10,01,16,30,91.00
2007,10,01,16,31,90.20
2007,10,01,16,32,93.00
2007,10,01,16,33,98.40
2007,10,01,16,34,98.90
2007,10,01,16,35,95.90
2007,10,01,16,36,92.40
2007,10,01,16,37,86.90
2007,10,01,16,38,86.00
2007,10,01,16,39,81.90
2007,10,01,16,40,75.20
2007,10,01,16,41,69.40
2007,10,01,16,42,64.20
2007,10,01,16,43,62.10
2007,10,01,16,44,57.90
2007,10,01,16,45,56.00
2007,10,01,16,46,55.30
2007,10,01,16,47,52.50
2007,10,01,16,48,49.60
2007,10,01,16,49,46.40
2007,10,01,16,50,41.80
2007,10,01,16,51,38.10
2007,10,01,16,52,35.00
2007,10,01,16,53,34.00
2007,10,01,16,54,30.70
2007,10,01,16,55,28.20
2007,10,01,16,56,25.90
2007,10,01,16,57,24.50
2007,10,01,16,58,22.20
2007,10,01,16,59,21.00
2007,10,01,17,00,21.00
2007,10,01,17,01,19.10
2007,10,01,17,02,17.80
2007,10,01,17,03,16.00
2007,10,01,17,04,15.10
2007,10,01,17,05,15.10
2007,10,01,17,06,16.00
2007,10,01,17,07,16.00
2007,10,01,17,08,15.80
2007,10,01,17,09,14.00
2007,10,01,17,10,14.90
2007,10,01,17,11,17.30
2007,10,01,17,12,18.00
2007,10,01,17,13,19.00
2007,10,01,17,14,18.80
2007,10,01,17,15,18.00
2007,10,01,17,16,16.90
2007,10,01,17,17,14.70
2007,10,01,17,18,12.40
2007,10,01,17,19,12.00
2007,10,01,17,20,12.00
2007,10,01,17,21,12.00